Location: Edinburgh
(55.9500°N, 3.1600°W)
Time: 14:03:51
(UTC+00:00)

Envisat - Pass Details

Date: 17 February 2019
Orbit: 764 x 766 km, 98.2° (Epoch: 21 March)

Event Time Altitude Azimuth Distance (km) Brightness Sun altitude
Rises 06:03:43 0° 28° (NNE) 3,248 6.6 -13.2°
Reaches altitude 10° 06:07:49 10° 60° (ENE) 2,313 6.4 -12.6°
Maximum altitude 06:09:34 12° 81° (E) 2,195 6.7 -12.4°
Drops below altitude 10° 06:11:19 10° 101° (E) 2,307 7.0 -12.1°
Sets 06:15:22 0° 133° (SE) 3,226 7.1 -11.6°
